Location: Pinhey's Point
(45.4411°N, 75.9539°W)
Time: 15:04:04
(UTC-04:00)

Iridium 65 - Visible Passes

Search period start: 17 April 2014 00:00
Search period end: 27 April 2014 00:00
Orbit: 776 x 779 km, 86.4° (Epoch: 17 April)

Date Brightness Start Highest point End Pass type
(mag) Time Alt. Az. Time Alt. Az. Time Alt. Az.
17 Apr 6.4 21:14:01 10° NNE 21:18:36 30° ENE 21:20:42 23° ESE visible
17 Apr 6.8 22:54:39 10° NNW 22:59:20 35° W 23:01:12 27° WSW visible
18 Apr 7.1 20:41:17 10° NNE 20:44:46 18° ENE 20:47:38 12° ESE visible
18 Apr 5.9 22:20:48 10° N 22:25:58 62° W 22:28:08 34° SSW visible
19 Apr 5.4 21:47:13 10° N 21:52:27 75° E 21:55:05 30° SSE visible
19 Apr 8.0 23:29:44 10° NW 23:32:29 15° WNW 23:35:13 10° WSW visible
20 Apr 6.0 21:13:52 10° N 21:18:49 42° E 21:22:03 20° SE visible
20 Apr 7.4 22:55:05 10° NNW 22:59:17 25° W 23:02:33 14° SW visible
21 Apr 6.7 20:40:50 10° NNE 20:45:04 24° ENE 20:49:03 11° SE visible
21 Apr 6.5 22:21:03 10° NNW 22:25:59 44° W 22:29:33 18° SSW visible
22 Apr 5.6 21:47:19 10° N 21:52:33 78° W 21:56:34 17° S visible
23 Apr 5.6 21:13:49 10° N 21:19:00 60° E 21:23:37 13° SSE visible
23 Apr 7.9 22:55:44 10° NW 22:59:11 18° WNW 23:02:38 10° WSW visible
24 Apr 6.3 20:40:35 10° NNE 20:45:18 34° ENE 20:50:00 10° SE visible
24 Apr 7.2 22:21:24 10° NNW 22:25:57 31° W 22:30:29 10° SW visible
25 Apr 6.2 21:47:30 10° NNW 21:52:35 55° W 21:57:39 10° SSW visible
26 Apr 5.5 21:13:51 10° N 21:19:06 84° E 21:24:19 10° S visible
26 Apr 8.2 22:56:47 10° NW 22:59:02 13° WNW 23:01:17 10° W visible
